Flag for Germany Weather past 2 weeks in Papenburg, Lower Saxony, Germany

Now
75 °F

Overcast.


Feels Like: 77 °F
Forecast: 63 / 69 °F
Wind: 7 mph from East

Location: Emden-Koenigspolder

Current Time: Jul 24, 2014 at 5:58:24 PM

Latest Report: Jul 24, 2014 at 4:00 PM


Visibility: 6 mi

Pressure: 30.04 "Hg

Humidity: 56%

Dew point: 58 °F

Location of PapenburgLocation

Historic Weather in Papenburg — Graph

°F

Papenburg temperature yesterday

Maximum temperature yesterday: 79 °F (at 5:00 PM)
Minimum temperature yesterday: 61 °F (at 5:00 AM)
Average temperature yesterday: 72 °F

Past Weeks' High & Low Weather Summary

 TemperatureHumidityPressure
High91 °F (Jul 19, 5:00 PM)99% (Jul 18, 6:00 AM)30.18 "Hg (Jul 18, 6:00 AM)
Low53 °F (Jul 12, 6:00 AM)31% (Jul 19, 5:00 PM)29.65 "Hg (Jul 9, 5:00 PM)
Average69 °F75%29.95 "Hg
* Reported Jul 9 4:00 PM — Jul 24 4:00 PM, Papenburg, Weather by CustomWeather, © 2014

Note: Actual official high and low records may vary slightly from our data, if they occured in-between our weather recording intervals... More about our weather records

Advertising

Papenburg weather history for previous 24 hours

 ConditionsComfort  
Time TempWeatherWind HumidityBarometerVisibility
4:00 PM
Jul 24
75 °FOvercast.7 mph56%30.04 "Hg6 mi
3:00 PM79 °FPartly sunny.8 mph42%30.05 "Hg6 mi
2:00 PM79 °FPartly sunny.7 mph44%30.05 "Hg6 mi
1:00 PM78 °FScattered clouds.7 mph45%30.06 "Hg7 mi
12:00 PM76 °FSunny.7 mph51%30.06 "Hg5 mi
10:00 AM73 °FSunny.7 mph57%30.07 "Hg4 mi
9:00 AM71 °FSunny.6 mph66%30.07 "Hg2 mi
8:00 AM67 °FSunny.5 mph73%30.08 "Hg2 mi
7:00 AM64 °FFog.3 mph86%30.08 "Hg4 mi
6:00 AM57 °FOvercast.3 mph91%30.08 "Hg7 mi
5:00 AM58 °FPassing clouds.3 mph88%30.08 "Hg7 mi
4:00 AM59 °FPassing clouds.2 mph85%30.09 "Hg8 mi
3:00 AM59 °FPassing clouds.2 mph83%30.09 "Hg8 mi
2:00 AM60 °FClear.3 mph82%30.09 "Hg8 mi
1:00 AM63 °FPassing clouds.2 mph76%30.09 "Hg9 mi
12:00 AM67 °FClear.3 mph67%30.10 "Hg9 mi
11:00 PM
Jul 23
69 °FClear.5 mph62%30.10 "Hg9 mi
10:00 PM72 °FClear.6 mph62%30.09 "Hg9 mi
9:00 PM74 °FSunny.5 mph58%30.08 "Hg9 mi
8:00 PM77 °FSunny.7 mph52%30.08 "Hg8 mi
7:00 PM78 °FSunny.7 mph53%30.09 "Hg7 mi
6:00 PM78 °FSunny.7 mph49%30.09 "Hg8 mi
5:00 PM79 °FSunny.6 mph46%30.10 "Hg7 mi
Weather by CustomWeather, © 2014

See weather overviewHow to use our weather pages